SCP
0 0 0 0 0 0 0 0 0 0 0 0 0 0 0 0 0 0 0 0 0 0 0 0 0 0 0 0 0 0 0 0 0 0 0 0 0 0 0 0 0 0 0 0
0 0 0 0 0 0 0 0 0 0 0 0 0 0 0 0 0 0 0 0 0 0 0 0 0 0 0 0 0 0 0 0 0 0 0 0 0 0 0 0 0 0 0 0
0 0 0 0 0 0 0 0 0 0 0 0 0 0 0 0 0 0 0 0 0 0 0 0 0 0 0 0 0 0 0 0 0 0 0 0 0 0 0 0 0 0 0 0
0 0 0 0 0 0 0 0 0 0 0 0 0 0 0 0 0 0 0 0 0 0 0 0 0 0 0 0 0 0 0 0 0 0 0 0 0 0 0 0 0 0 0 0
0 0 0 0 0 0 0 0 0 0 0 0 0 0 0 0 0 0 0 0 0 0 0 0 0 0 0 0 0 0 0 0 0 0 0 0 0 0 0 0 0 0 0 0
0 0 0 0 0 0 0 0 0 0 0 0 0 0 0 0 0 0 0 0 0 0 0 0 0 0 0 0 0 0 0 0 0 0 0 0 0 0 0 0 0 0 0 0
0 0 0 0 0 0 0 0 0 0 0 0 0 0 0 0 0 0 0 0 0 0 0 0 0 0 0 0 0 0 0 0 0 0 0 0 0 0 0 0 0 0 0 0
0 0 0 0 0 0 0 0 0 0 0 0 0 0 0 0 0 0 0 0 0 0 0 0 0 0 0 0 0 0 0 0 0 0 0 0 0 0 0 0 0 0 0 0
0 0 0 0 0 0 0 0 0 0 0 0 0 0 0 0 0 0 0 0 0 0 0 0 0 0 0 0 0 0 0 0 0 0 0 0 0 0 0 0 0 0 0 0
0 0 0 0 0 0 0 0 0 0 0 0 0 0 0 0 0 0 0 0 0 0 0 0 0 0 0 0 0 0 0 0 0 0 0 0 0 0 0 0 0 0 0 0
0 0 0 0 0 0 0 0 0 0 0 0 0 0 0 0 0 0 0 0 0 0 0 0 0 0 0 0 0 0 0 0 0 0 0 0 0 0 0 0 0 0 0 0
0 0 0 0 0 0 0 0 0 0 0 0 0 0 0 0 0 0 0 0 0 0 0 0 0 0 0 0 0 0 0 0 0 0 0 0 0 0 0 0 0 0 0 0
0 0 0 0 0 0 0 0 0 0 0 0 0 0 0 0 0 0 0 0 0 0 0 0 0 0 0 0 0 0 0 0 0 0 0 0 0 0 0 0 0 0 0 0
0 0 0 0 0 0 0 0 0 0 0 0 0 0 0 0 0 0 0 0 0 0 0 0 0 0 0 0 0 0 0 0 0 0 0 0 0 0 0 0 0 0 0 0
0 0 0 0 0 0 0 0 0 0 0 0 0 0 0 0 0 0 0 0 0 0 0 0 0 0 0 0 0 0 0 0 0 0 0 0 0 0 0 0 0 0 0 0
0 0 0 0 0 0 0 0 0 0 0 0 0 0 0 0 0 0 0 0 0 0 0 0 0 0 0 0 0 0 0 0 0 0 0 0 0 0 0 0 0 0 0 0
0 0 0 0 0 0 0 0 0 0 0 0 0 0 0 0 0 0 0 0 0 0 0 0 0 0 0 0 0 0 0 0 0 0 0 0 0 0 0 0 0 0 0 0
0 0 0 0 0 0 0 0 0 0 0 0 0 0 0 0 0 0 0 0 0 0 0 0 0 0 0 0 0 0 0 0 0 0 0 0 0 0 0 0 0 0 0 0
0 0 0 0 0 0 0 0 0 0 0 0 0 0 0 0 0 0 0 0 0 0 0 0 0 0 0 0 0 0 0 0 0 0 0 0 0 0 0 0 0 0 0 0
0 0 0 0 0 0 0 0 0 0 0 0 0 0 0 0 0 0 0 0 0 0 0 0 0 0 0 0 0 0 0 0 0 0 0 0 0 0 0 0 0 0 0 0
0 0 0 0 0 0 0 0 0 0 0 0 0 0 0 0 0 0 0 0 0 0 0 0 0 0 0 0 0 0 0 0 0 0 0 0 0 0 0 0 0 0 0 0
0 0 0 0 0 0 0 0 0 0 0 0 0 0 0 0 0 0 0 0 0 0 0 0 0 0 0 0 0 0 0 0 0 0 0 0 0 0 0 0 0 0 0 0
0 0 0 0 0 0 0 0 0 0 0 0 0 0 0 0 0 0 0 0 0 0 0 0 0 0 0 0 0 0 0 0 0 0 0 0 0 0 0 0 0 0 0 0
0 0 0 0 0 0 0 0 0 0 0 0 0 0 0 0 0 0 0 0 0 0 0 0 0 0 0 0 0 0 0 0 0 0 0 0 0 0 0 0 0 0 0 0
0 0 0 0 0 0 0 0 0 0 0 0 0 0 0 0 0 0 0 0 0 0 0 0 0 0 0 0 0 0 0 0 0 0 0 0 0 0 0 0 0 0 0 0
0 0 0 0 0 0 0 0 0 0 0 0 0 0 0 0 0 0 0 0 0 0 0 0 0 0 0 0 0 0 0 0 0 0 0 0 0 0 0 0 0 0 0 0
0 0 0 0 0 0 0 0 0 0 0 0 0 0 0 0 0 0 0 0 0 0 0 0 0 0 0 0 0 0 0 0 0 0 0 0 0 0 0 0 0 0 0 0
Wind_Speed
2 2 3 3 2 2 4 5 5 6 6 10 7 8 9 7 7 10 11 10 11 11 10 10 10 11 12 12 12 13 14 15 15 15 14 14 15 15 16 16 17 16 15 14
2 2 3 3 3 2 3 3 4 5 7 5 6 6 8 7 8 11 11 11 12 13 12 11 11 12 13 12 12 13 13 14 15 15 15 14 14 15 16 16 16 16 15 13
4 4 4 5 6 5 3 3 4 5 6 6 8 9 8 5 7 9 11 11 12 12 10 10 9 12 12 12 12 12 12 13 14 14 15 15 16 16 15 14 14 14 14 13
2 5 5 3 2 3 2 5 5 5 6 7 7 7 2 4 5 7 8 9 9 9 10 8 8 10 11 11 11 12 12 12 12 13 14 14 14 14 13 12 11 11 12 13
2 3 9 3 2 3 2 5 3 3 6 6 5 5 1 4 4 4 4 5 6 6 7 9 9 11 11 11 11 11 12 12 12 12 13 13 13 14 12 11 10 10 10 12
3 1 7 2 3 3 3 4 3 2 5 5 6 6 3 4 4 4 4 5 6 7 7 8 9 10 10 11 11 12 12 12 12 12 13 11 12 12 12 11 12 12 11 10
4 5 10 3 3 4 2 4 2 2 2 2 2 3 4 4 4 5 5 6 7 7 7 8 9 10 10 11 11 12 13 12 12 12 12 9 10 10 11 12 12 11 11 10
5 4 10 4 6 6 6 2 1 1 1 0 2 2 4 5 6 8 8 8 7 7 8 9 8 9 10 11 12 12 12 12 12 11 11 11 9 10 10 10 10 9 9 11
10 8 3 4 5 3 3 1 2 2 2 1 1 2 4 5 6 6 7 8 7 8 9 9 8 8 10 12 12 12 12 12 12 12 10 9 8 8 8 7 8 8 8 9
5 6 4 2 2 3 3 3 4 4 4 3 1 1 3 5 6 7 7 7 8 9 10 10 9 11 11 12 12 12 13 13 12 10 10 8 9 8 7 7 8 9 8 9
5 3 1 2 3 4 4 6 6 5 4 3 1 1 3 4 6 7 9 9 9 9 11 12 12 12 13 12 12 13 13 13 12 12 9 8 8 7 9 6 10 10 6 6
7 6 6 4 4 6 6 5 5 5 4 3 2 1 3 4 5 5 8 9 10 11 13 13 13 14 13 12 12 13 14 13 11 11 10 10 9 9 13 13 17 16 14 12
4 4 5 6 5 4 5 5 5 5 5 3 1 1 3 4 5 7 9 10 11 12 13 13 14 14 14 13 14 14 15 15 12 11 11 11 11 10 9 9 13 14 15 15
4 6 5 4 5 5 7 7 7 6 5 3 1 2 3 4 6 7 8 9 11 12 13 12 13 14 14 13 15 15 15 16 15 11 11 11 11 9 7 7 7 6 9 13
4 5 7 8 8 7 7 6 6 4 3 2 2 3 4 5 7 8 9 10 11 12 12 12 13 15 15 14 16 16 14 12 11 10 10 10 10 9 7 6 6 6 5 7
8 8 9 8 8 7 6 5 5 4 3 1 1 3 4 5 7 8 9 9 10 12 12 13 14 15 15 15 15 13 11 19 18 12 10 10 9 9 8 7 6 5 4 4
11 8 7 7 8 6 6 5 6 5 4 2 1 3 5 6 6 8 9 9 8 10 11 11 14 16 15 14 13 10 10 12 20 13 10 10 10 9 8 7 6 5 4 6
7 7 8 8 9 9 7 6 6 6 4 2 0 2 4 5 7 10 11 12 11 10 9 10 13 14 13 13 10 8 9 10 11 11 11 11 12 10 9 7 6 5 3 4
7 8 8 8 9 9 8 7 6 5 4 2 1 3 4 5 6 8 9 9 9 11 12 13 20 15 13 14 14 7 9 11 12 12 11 16 13 11 10 8 6 3 2 2
8 8 9 9 8 8 8 7 6 5 3 2 1 3 5 6 7 8 8 6 5 7 12 14 12 11 11 11 16 8 10 12 13 12 11 11 11 11 11 10 8 4 1 1
10 9 9 9 8 7 8 8 7 6 4 2 0 2 5 7 7 7 7 7 7 10 11 16 11 11 10 12 14 9 10 12 12 10 10 10 10 11 11 11 10 8 5 3
9 9 10 9 9 7 6 6 6 6 4 2 1 2 5 6 7 6 5 5 8 17 10 7 9 15 17 15 9 9 11 12 11 9 8 8 9 9 10 10 9 9 7 5
9 9 10 10 9 8 7 5 5 5 4 2 1 3 4 5 5 4 7 7 8 15 10 7 15 21 21 11 9 10 11 12 11 9 8 7 7 7 7 9 8 7 6 5
10 9 9 8 8 8 7 6 5 4 3 2 3 3 4 4 4 3 4 11 15 14 7 12 20 20 17 8 9 10 11 11 10 8 7 6 5 5 6 6 6 6 6 7
10 9 9 10 9 7 7 6 5 4 3 2 3 4 3 3 4 5 6 7 12 12 7 12 18 18 11 8 9 10 11 12 13 11 7 6 5 5 5 5 6 6 6 6
9 9 8 7 6 6 6 6 5 4 3 2 2 2 3 3 4 4 4 6 8 10 7 6 8 10 8 8 9 11 11 12 13 12 10 7 6 5 6 6 7 6 6 6
8 7 6 5 4 6 6 6 5 5 4 3 2 2 3 3 4 4 5 5 5 6 5 6 6 7 7 8 9 10 10 11 12 13 12 9 7 5 6 7 6 6 6 7
Wind_Direction
268 1 293 250 244 187 171 188 211 261 281 294 304 313 315 326 337 346 347 343 348 346 340 338 340 339 339 337 338 339 338 339 338 335 333 333 335 339 338 339 339 337 339 345
274 324 298 243 209 181 176 199 241 273 281 267 297 314 323 336 349 348 343 345 347 343 339 338 340 340 338 333 333 335 335 335 336 337 337 337 337 342 341 339 338 340 341 344
286 321 357 275 205 181 203 224 230 252 261 300 319 326 330 354 2 348 342 346 344 339 334 330 334 337 331 329 328 333 333 333 335 336 338 339 342 342 340 337 337 340 342 345
325 13 291 275 127 156 241 270 247 244 271 300 308 315 28 53 4 344 342 340 333 331 329 323 324 330 326 325 328 332 332 332 334 335 336 337 342 341 337 334 335 336 338 343
79 313 282 294 230 178 211 284 257 245 289 311 331 315 121 52 10 341 334 325 320 320 316 318 323 327 327 326 329 333 335 334 333 333 335 336 341 338 335 333 336 336 339 342
119 267 267 271 161 131 105 299 276 265 304 328 351 336 337 24 354 343 336 325 319 319 318 320 318 324 326 326 329 332 333 331 329 330 332 332 339 335 335 338 343 345 342 342
167 232 266 237 143 113 126 269 294 341 344 355 316 286 340 358 349 346 335 321 318 319 319 316 316 322 323 323 323 324 326 327 328 328 324 330 334 331 334 340 341 342 342 340
161 214 263 197 140 173 214 231 12 56 76 7 309 339 345 343 339 339 331 324 321 322 319 315 313 319 318 317 315 318 320 321 322 321 320 332 327 324 328 333 336 335 340 342
191 211 247 176 179 189 164 126 94 123 102 86 28 330 331 331 329 328 325 321 323 318 316 313 311 313 313 312 313 316 316 314 312 313 311 313 316 316 322 327 330 333 341 343
244 259 237 210 160 102 84 108 116 114 108 108 130 321 333 331 332 330 325 326 328 323 319 315 314 316 309 309 313 313 311 309 308 308 304 302 309 315 317 318 318 327 342 338
251 261 162 163 144 123 108 111 110 100 98 106 107 6 339 321 320 324 330 330 328 324 317 316 316 313 312 313 311 310 308 306 307 307 300 295 295 295 304 299 306 322 330 325
215 202 163 171 142 136 140 140 134 126 112 84 69 15 333 318 315 320 326 328 324 320 318 315 314 311 309 309 309 309 310 311 310 310 307 307 303 298 297 307 317 322 325 331
157 135 120 121 110 117 123 119 113 118 124 121 86 16 340 322 324 327 324 323 320 316 314 313 313 311 311 312 313 312 311 312 312 313 313 310 305 301 299 305 313 320 324 328
150 119 121 141 133 117 112 109 102 95 96 103 80 15 346 323 317 320 315 313 311 312 313 314 313 311 312 314 314 314 313 314 317 310 308 308 309 307 298 301 310 312 319 323
133 123 132 124 118 116 115 115 116 122 124 90 32 0 340 327 318 312 307 310 314 315 317 317 315 312 314 317 318 318 318 317 316 318 321 322 321 318 308 299 298 299 302 313
110 101 116 131 141 140 136 140 150 161 159 142 346 334 323 308 301 301 304 310 318 318 316 315 314 314 318 320 323 321 320 328 337 336 329 324 319 313 306 298 290 282 281 284
134 146 157 161 164 160 160 164 163 159 159 174 298 316 321 320 318 321 324 324 314 303 302 307 313 313 317 325 325 325 330 332 338 333 321 318 314 310 306 301 289 276 266 271
159 165 167 163 163 155 148 144 144 148 159 171 322 337 341 339 329 320 320 322 322 321 317 319 315 320 328 327 331 341 335 329 329 328 329 332 338 336 326 313 299 285 272 286
124 128 131 136 144 146 146 148 150 146 141 125 38 347 324 309 303 304 309 314 319 327 323 318 330 338 326 332 349 336 334 335 335 336 341 349 354 348 344 338 324 299 276 273
118 120 119 120 124 133 143 144 143 141 141 129 39 340 328 318 310 309 308 296 285 292 300 322 338 327 324 342 355 342 340 339 338 343 351 357 355 354 354 355 357 357 346 300
136 135 135 136 135 138 142 144 146 150 152 148 90 321 310 306 310 314 318 320 320 318 326 344 338 326 344 356 352 344 341 339 341 349 356 358 357 359 2 5 9 14 17 14
148 148 148 146 143 142 143 145 147 149 152 167 252 302 311 314 318 312 288 272 305 328 344 336 326 346 0 0 345 343 341 339 341 349 358 358 357 358 360 2 5 10 11 6
154 155 155 155 152 145 139 147 156 157 164 183 249 298 303 298 301 311 323 319 319 335 350 328 343 355 3 358 345 342 341 339 339 347 354 354 350 349 351 353 354 355 353 351
152 155 150 137 130 138 156 170 166 164 171 208 252 267 277 295 299 269 280 315 329 342 349 342 356 1 3 354 344 341 339 337 338 339 343 344 339 335 336 338 337 337 339 341
150 145 144 150 162 172 168 156 158 172 191 228 259 263 259 257 271 298 307 310 328 348 345 346 356 359 359 345 344 341 338 338 343 342 333 333 332 327 323 322 322 321 321 321
154 161 166 175 169 156 152 158 169 179 182 199 235 257 280 286 286 293 303 313 328 347 347 340 342 349 347 345 344 341 338 337 339 340 335 327 320 318 315 312 309 305 302 300
134 141 146 150 158 160 161 169 175 177 178 183 206 248 284 298 307 320 326 330 335 339 338 341 343 343 343 344 344 343 340 339 341 343 342 335 322 309 304 302 298 293 291 290